| time (UTC) | temp C | wind direction | speed KPH | gust KPH | rain 1hr cm | rain 24hr cm | rain mn cm | humidity % | barometer mb |
| 20260505100830 | 11 | 52 | 6.4 | 37.0 | 0.00 | 0.00 | 0.00 | 58 | 1009.3 |
| 20260505095828 | 11 | 59 | 12.9 | 25.7 | 0.00 | 0.00 | 0.00 | 60 | 1009.7 |
| 20260505094827 | 11 | 50 | 4.8 | 24.1 | 0.00 | 0.00 | 0.00 | 64 | 1009.7 |
| 20260505093825 | 11 | 83 | 12.9 | 22.5 | 0.00 | 0.00 | 0.00 | 63 | 1009.3 |
| 20260505092820 | 11 | 110 | 8.0 | 29.0 | 0.00 | 0.00 | 0.00 | 61 | 1009.3 |
| 20260505091815 | 11 | 68 | 8.0 | 32.2 | 0.00 | 0.00 | 0.00 | 63 | 1009.5 |
| 20260505090811 | 11 | 10 | 12.9 | 20.9 | 0.00 | 0.00 | 0.00 | 68 | 1009.1 |
| 20260505085806 | 11 | 58 | 9.7 | 25.7 | 0.00 | 0.00 | 0.00 | 67 | 1008.7 |
| 20260505084801 | 11 | 69 | 14.5 | 35.4 | 0.00 | 0.00 | 0.00 | 65 | 1008.6 |
| 20260505083756 | 11 | 87 | 9.7 | 54.7 | 0.00 | 0.00 | 0.00 | 65 | 1008.4 |
| 20260505082756 | 12 | 77 | 8.0 | 30.6 | 0.00 | 0.00 | 0.00 | 66 | 1008.8 |
| 20260505081754 | 12 | 42 | 8.0 | 27.4 | 0.00 | 0.00 | 0.00 | 62 | 1009.1 |
| 20260505080754 | 13 | 14 | 4.8 | 20.9 | 0.00 | 0.00 | 0.00 | 63 | 1008.8 |
| 20260505075752 | 13 | 20 | 3.2 | 25.7 | 0.00 | 0.00 | 0.00 | 63 | 1008.3 |
| 20260505074746 | 13 | 43 | 6.4 | 22.5 | 0.00 | 0.00 | 0.00 | 63 | 1008.3 |
| 20260505073741 | 13 | 21 | 17.7 | 25.7 | 0.00 | 0.00 | 0.00 | 63 | 1008.2 |
| 20260505072741 | 13 | 104 | 6.4 | 20.9 | 0.00 | 0.00 | 0.00 | 64 | 1007.8 |
| 20260505071739 | 13 | 0 | 4.8 | 29.0 | 0.00 | 0.00 | 0.00 | 68 | 1007.9 |
| 20260505070734 | 13 | 110 | 8.0 | 20.9 | 0.00 | 0.00 | 0.00 | 69 | 1007.8 |
| 20260505065731 | 13 | 86 | 6.4 | 20.9 | 0.00 | 0.00 | 0.00 | 68 | 1007.3 |
| 20260505064731 | 13 | 68 | 11.3 | 20.9 | 0.00 | 0.00 | 0.00 | 70 | 1007.4 |
| 20260505063726 | 13 | 67 | 19.3 | 35.4 | 0.00 | 0.00 | 0.00 | 70 | 1007.1 |
| 20260505062724 | 13 | 84 | 14.5 | 24.1 | 0.00 | 0.00 | 0.00 | 73 | 1006.6 |
| 20260505061719 | 13 | 20 | 17.7 | 19.3 | 0.00 | 0.00 | 0.00 | 78 | 1006.7 |
| 20260505060714 | 13 | 15 | 8.0 | 17.7 | 0.00 | 0.00 | 0.00 | 80 | 1007.0 |
| 20260505055712 | 13 | 28 | 8.0 | 29.0 | 0.00 | 0.00 | 0.00 | 81 | 1006.5 |
| 20260505054712 | 13 | 53 | 4.8 | 30.6 | 0.00 | 0.00 | 0.00 | 82 | 1006.2 |
| 20260505053708 | 13 | 51 | 12.9 | 22.5 | 0.00 | 0.00 | 0.00 | 84 | 1005.9 |
| 20260505052707 | 13 | 0 | 16.1 | 24.1 | 0.00 | 0.00 | 0.00 | 84 | 1005.6 |
| 20260505051707 | 13 | 49 | 11.3 | 22.5 | 0.00 | 0.00 | 0.00 | 85 | 1006.1 |
| 20260505050703 | 13 | 346 | 14.5 | 19.3 | 0.00 | 0.00 | 0.00 | 85 | 1005.8 |
| 20260505041648 | 16 | 12 | 17.7 | 37.0 | 0.00 | 0.03 | 0.03 | 67 | 1005.9 |
| 20260505040648 | 19 | 4 | 14.5 | 30.6 | 0.00 | 0.03 | 0.03 | 65 | 1005.7 |
| 20260505035648 | 20 | 349 | 6.4 | 9.7 | 0.00 | 0.03 | 0.03 | 75 | 1005.5 |
| 20260505034646 | 21 | 359 | 4.8 | 8.0 | 0.05 | 0.03 | 0.03 | 68 | 1005.1 |
| 20260505033646 | 21 | 50 | 3.2 | 9.7 | 0.05 | 0.00 | 0.00 | 72 | 1005.5 |
| 20260505032642 | 22 | 196 | 4.8 | 9.7 | 0.00 | 0.00 | 0.00 | 65 | 1005.6 |
| 20260505031642 | 22 | 195 | 3.2 | 9.7 | 0.00 | 0.00 | 0.00 | 61 | 1004.8 |
| 20260505030640 | 22 | 167 | 8.0 | 20.9 | 0.00 | 0.00 | 0.00 | 60 | 1004.7 |
| 20260505025637 | 22 | 154 | 3.2 | 9.7 | 0.00 | 0.00 | 0.00 | 58 | 1004.4 |
| 20260505024633 | 22 | 174 | 3.2 | 6.4 | 0.00 | 0.00 | 0.00 | 58 | 1004.3 |
| 20260505023633 | 23 | 140 | 8.0 | 11.3 | 0.00 | 0.00 | 0.00 | 56 | 1004.1 |
| 20260505022628 | 22 | 132 | 6.4 | 11.3 | 0.00 | 0.00 | 0.00 | 56 | 1004.2 |
| 20260505021627 | 23 | 131 | 12.9 | 12.9 | 0.00 | 0.00 | 0.00 | 55 | 1003.9 |
| 20260505020626 | 23 | 122 | 3.2 | 4.8 | 0.00 | 0.00 | 0.00 | 54 | 1003.9 |
| 20260505015625 | 23 | 220 | 0.0 | 11.3 | 0.00 | 0.00 | 0.00 | 53 | 1003.9 |
| 20260505014624 | 23 | 195 | 6.4 | 12.9 | 0.00 | 0.00 | 0.00 | 53 | 1003.5 |
| 20260505013625 | 23 | 139 | 4.8 | 11.3 | 0.00 | 0.00 | 0.00 | 52 | 1003.2 |
| 20260505012620 | 24 | 154 | 4.8 | 8.0 | 0.00 | 0.00 | 0.00 | 51 | 1003.1 |
| 20260505011618 | 25 | 149 | 8.0 | 11.3 | 0.00 | 0.00 | 0.00 | 50 | 1003.2 |
| 20260505010616 | 25 | 136 | 3.2 | 11.3 | 0.00 | 0.00 | 0.00 | 49 | 1003.0 |
| 20260505005615 | 25 | 168 | 3.2 | 16.1 | 0.00 | 0.00 | 0.00 | 49 | 1003.0 |
| 20260505004615 | 25 | 166 | 6.4 | 12.9 | 0.00 | 0.00 | 0.00 | 48 | 1002.9 |
| 20260505003615 | 25 | 156 | 4.8 | 16.1 | 0.00 | 0.00 | 0.00 | 48 | 1002.9 |
| 20260505002614 | 26 | 149 | 4.8 | 12.9 | 0.00 | 0.00 | 0.00 | 46 | 1002.7 |
| 20260505001609 | 26 | 177 | 6.4 | 22.5 | 0.00 | 0.00 | 0.00 | 45 | 1003.0 |
| 20260505000609 | 26 | 200 | 8.0 | 24.1 | 0.00 | 0.00 | 0.00 | 44 | 1002.9 |
| 20260504235609 | 27 | 136 | 14.5 | 22.5 | 0.00 | 0.00 | 0.00 | 43 | 1003.1 |
| 20260504234609 | 27 | 167 | 8.0 | 17.7 | 0.00 | 0.00 | 0.00 | 41 | 1002.7 |
| 20260504233607 | 28 | 166 | 9.7 | 17.7 | 0.00 | 0.00 | 0.00 | 40 | 1002.8 |
| 20260504232607 | 28 | 161 | 11.3 | 22.5 | 0.00 | 0.00 | 0.00 | 39 | 1002.9 |
| 20260504231606 | 29 | 174 | 4.8 | 19.3 | 0.00 | 0.00 | 0.00 | 35 | 1002.9 |
| 20260504230604 | 30 | 146 | 4.8 | 9.7 | 0.00 | 0.00 | 0.00 | 34 | 1002.8 |
| 20260504225601 | 30 | 186 | 1.6 | 8.0 | 0.00 | 0.00 | 0.00 | 31 | 1002.8 |
| 20260504224600 | 29 | 123 | 4.8 | 11.3 | 0.00 | 0.00 | 0.00 | 32 | 1002.8 |
| 20260504223600 | 29 | 229 | 6.4 | 8.0 | 0.00 | 0.00 | 0.00 | 29 | 1003.1 |
| 20260504222559 | 29 | 101 | 6.4 | 11.3 | 0.00 | 0.00 | 0.00 | 30 | 1003.1 |
| 20260504221553 | 29 | 45 | 3.2 | 8.0 | 0.00 | 0.00 | 0.00 | 31 | 1003.2 |
| 20260504220552 | 28 | 144 | 11.3 | 14.5 | 0.00 | 0.00 | 0.00 | 31 | 1003.2 |
| 20260504215551 | 28 | 129 | 11.3 | 14.5 | 0.00 | 0.00 | 0.00 | 30 | 1003.3 |
| 20260504214550 | 28 | 208 | 3.2 | 11.3 | 0.00 | 0.00 | 0.00 | 31 | 1003.5 |
| 20260504213550 | 30 | 199 | 8.0 | 19.3 | 0.00 | 0.00 | 0.00 | 29 | 1003.4 |
| 20260504212548 | 30 | 111 | 6.4 | 14.5 | 0.00 | 0.00 | 0.00 | 30 | 1003.7 |
| 20260504211548 | 28 | 152 | 9.7 | 14.5 | 0.00 | 0.00 | 0.00 | 32 | 1003.8 |
| 20260504210548 | 28 | 136 | 3.2 | 17.7 | 0.00 | 0.00 | 0.00 | 32 | 1003.7 |
| 20260504205548 | 28 | 185 | 8.0 | 14.5 | 0.00 | 0.00 | 0.00 | 32 | 1004.0 |
| 20260504204544 | 28 | 170 | 4.8 | 9.7 | 0.00 | 0.00 | 0.00 | 33 | 1003.9 |
| 20260504203540 | 30 | 164 | 11.3 | 16.1 | 0.00 | 0.00 | 0.00 | 29 | 1004.2 |
| 20260504202539 | 30 | 184 | 4.8 | 8.0 | 0.00 | 0.00 | 0.00 | 29 | 1004.4 |
| 20260504201539 | 28 | 147 | 6.4 | 8.0 | 0.00 | 0.00 | 0.00 | 30 | 1004.4 |
| 20260504200538 | 30 | 132 | 8.0 | 14.5 | 0.00 | 0.00 | 0.00 | 29 | 1004.7 |
| 20260504195537 | 30 | 140 | 6.4 | 17.7 | 0.00 | 0.00 | 0.00 | 30 | 1004.8 |
| 20260504194537 | 30 | 158 | 4.8 | 6.4 | 0.00 | 0.00 | 0.00 | 30 | 1004.7 |
| 20260504193535 | 30 | 247 | 1.6 | 4.8 | 0.00 | 0.00 | 0.00 | 27 | 1005.0 |
| 20260504192531 | 28 | 75 | 3.2 | 12.9 | 0.00 | 0.00 | 0.00 | 27 | 1005.0 |
| 20260504191527 | 29 | 178 | 6.4 | 11.3 | 0.00 | 0.00 | 0.00 | 29 | 1005.1 |
| 20260504190525 | 29 | 120 | 6.4 | 8.0 | 0.00 | 0.00 | 0.00 | 29 | 1005.1 |
| 20260504185524 | 29 | 79 | 0.0 | 9.7 | 0.00 | 0.00 | 0.00 | 28 | 1005.4 |
| 20260504184521 | 28 | 257 | 6.4 | 9.7 | 0.00 | 0.00 | 0.00 | 30 | 1005.3 |
| 20260504183520 | 27 | 101 | 0.0 | 8.0 | 0.00 | 0.00 | 0.00 | 33 | 1005.6 |
| 20260504182521 | 28 | 64 | 9.7 | 11.3 | 0.00 | 0.00 | 0.00 | 32 | 1005.4 |
| 20260504181515 | 27 | 217 | 4.8 | 12.9 | 0.00 | 0.00 | 0.00 | 32 | 1005.7 |
| 20260504180512 | 27 | 130 | 4.8 | 12.9 | 0.00 | 0.00 | 0.00 | 34 | 1005.8 |
| 20260504175507 | 27 | 168 | 3.2 | 12.9 | 0.00 | 0.00 | 0.00 | 36 | 1005.7 |
| 20260504174502 | 26 | 136 | 4.8 | 14.5 | 0.00 | 0.00 | 0.00 | 38 | 1006.0 |
| 20260504173501 | 26 | 126 | 6.4 | 11.3 | 0.00 | 0.00 | 0.00 | 33 | 1005.7 |
| 20260504172500 | 26 | 180 | 4.8 | 8.0 | 0.00 | 0.00 | 0.00 | 35 | 1005.7 |
| 20260504171500 | 27 | 154 | 6.4 | 9.7 | 0.00 | 0.00 | 0.00 | 33 | 1005.9 |
| 20260504170459 | 26 | 156 | 6.4 | 17.7 | 0.00 | 0.00 | 0.00 | 35 | 1006.0 |
| 20260504150437 | 22 | 236 | 17.7 | 25.7 | 0.00 | 0.00 | 0.00 | 45 | 1005.8 |
| 20260504140429 | 18 | 220 | 8.0 | 17.7 | 0.00 | 0.00 | 0.00 | 57 | 1006.0 |
| 20260504130423 | 16 | 198 | 4.8 | 9.7 | 0.00 | 0.00 | 0.00 | 64 | 1006.1 |
| 20260504110357 | 14 | 98 | 1.6 | 6.4 | 0.00 | 0.00 | 0.00 | 65 | 1006.0 |